Weather History for Akron Canton, OH

Change the Weather History Date:

Saturday, April 28, 2012

  Actual Average Record
Temperature  
Mean Temperature 40 °F 54 °F  
Max Temperature 45 °F 64 °F 88 °F (1986)
Min Temperature 35 °F 43 °F 25 °F (1947)
Degree Days  
Heating Degree Days 25 12  
Month to date heating degree days 453 457  
Since 1 July heating degree days 4736 5852  
Cooling Degree Days 0 0  
Month to date cooling degree days 3 0  
Year to date cooling degree days 25 0  
Growing Degree Days 0 (Base 50)    
Moisture  
Dew Point 28 °F    
Average Humidity 59    
Maximum Humidity 79    
Minimum Humidity 39    
Precipitation  
Precipitation 0.10 in 0.11 in 1.39 in (1958)
Month to date precipitation 1.38 3.32  
Year to date precipitation 10.14 11.22  
Snow  
Snow 0.00 in 0.00 in - ()
Month to date snowfall 0.1 2.7  
Since 1 July snowfall 31.0 47.4  
Snow Depth 0.00 in    
Sea Level Pressure  
Sea Level Pressure 30.22 in    
Wind  
Wind Speed 7 mph (East)    
Max Wind Speed 16 mph    
Max Gust Speed 20 mph    
Visibility 9 miles    
Events Rain    
T = Trace of Precipitation, MM = Missing Value Source: NWS Daily Summary

Daily Weather History Graph

Daily Weather History Graph

Search for Another Location

Airport:

Trip Planner

Search our weather history database for the weather conditions in past years. The results will help you decide how hot, cold, wet, or windy it might be!

Date:

Astronomy

Apr. 28, 2012 Rise Set
Actual Time 6:27 AM EDT 8:19 PM EDT
Civil Twilight 5:57 AM EDT 8:49 PM EDT
Nautical Twilight 5:21 AM EDT 9:25 PM EDT
Astronomical Twilight 4:43 AM EDT 10:04 PM EDT
Moon 12:05 PM EDT (4/28) 1:43 AM EDT (4/28)
Length of Visible Light 14h 51m
Length of Day
13h 52m
Waxing Crescent, 42% of the Moon is Illuminated
Apr 28
Waxing Crescent
Apr 29
First Quarter
May 5
Full
May 12
Last Quarter
May 20
New

Hourly Weather History & Observations

Time (EDT) Temp. Windchill Dew Point Humidity Pressure Visibility Wind Dir Wind Speed Gust Speed Precip Events Conditions
12:51 AM 37.9 °F 33.5 °F 23.0 °F 55% 30.24 in 10.0 mi ESE 5.8 mph - N/A   Mostly Cloudy
1:51 AM 36.0 °F 32.1 °F 23.0 °F 59% 30.23 in 10.0 mi ESE 4.6 mph - N/A   Overcast
2:51 AM 36.0 °F 30.3 °F 23.0 °F 59% 30.22 in 10.0 mi East 6.9 mph - N/A   Mostly Cloudy
3:51 AM 37.0 °F 34.5 °F 24.1 °F 59% 30.25 in 10.0 mi SSE 3.5 mph - N/A   Mostly Cloudy
4:51 AM 37.0 °F - 26.1 °F 65% 30.27 in 10.0 mi Calm Calm - N/A   Overcast
5:51 AM 37.9 °F 33.5 °F 23.0 °F 55% 30.25 in 10.0 mi ESE 5.8 mph - N/A   Overcast
6:51 AM 37.9 °F 33.5 °F 21.9 °F 53% 30.27 in 10.0 mi ENE 5.8 mph - N/A   Overcast
7:51 AM 39.0 °F 34.0 °F 19.9 °F 46% 30.26 in 10.0 mi East 6.9 mph - N/A   Overcast
8:51 AM 39.9 °F 35.1 °F 19.9 °F 45% 30.26 in 10.0 mi SE 6.9 mph - N/A   Overcast
9:51 AM 42.1 °F 36.1 °F 19.0 °F 40% 30.25 in 10.0 mi SE 10.4 mph - N/A   Overcast
10:51 AM 44.1 °F 39.0 °F 21.0 °F 40% 30.22 in 10.0 mi East 9.2 mph - N/A   Overcast
11:51 AM 45.0 °F 40.1 °F 21.0 °F 39% 30.22 in 10.0 mi SE 9.2 mph - N/A   Overcast
12:51 PM 44.1 °F 39.5 °F 21.9 °F 42% 30.23 in 10.0 mi East 8.1 mph - N/A   Overcast
1:51 PM 39.0 °F 32.8 °F 33.1 °F 79% 30.25 in 4.0 mi NE 9.2 mph - 0.08 in Rain Light Rain
2:51 PM 39.0 °F 32.8 °F 33.1 °F 79% 30.23 in 9.0 mi East 9.2 mph - 0.02 in Rain Light Rain
3:51 PM 42.1 °F 34.9 °F 36.0 °F 79% 30.18 in 7.0 mi NE 13.8 mph - 0.00 in Rain Light Rain
4:51 PM 42.1 °F 36.6 °F 37.0 °F 82% 30.16 in 8.0 mi NE 9.2 mph - 0.00 in   Overcast
5:51 PM 42.1 °F 36.1 °F 36.0 °F 79% 30.14 in 8.0 mi ENE 10.4 mph - N/A   Overcast
6:51 PM 43.0 °F 37.7 °F 36.0 °F 76% 30.15 in 8.0 mi NE 9.2 mph - N/A   Overcast
7:51 PM 42.1 °F 36.6 °F 33.1 °F 70% 30.16 in 10.0 mi NE 9.2 mph - N/A   Overcast
8:51 PM 42.1 °F 39.2 °F 32.0 °F 67% 30.18 in 10.0 mi NE 4.6 mph - N/A   Overcast
9:51 PM 42.1 °F - 32.0 °F 67% 30.18 in 10.0 mi Calm Calm - N/A   Overcast
10:51 PM 41.0 °F 34.7 °F 28.9 °F 62% 30.21 in 10.0 mi NNE 10.4 mph - N/A   Overcast
11:51 PM 41.0 °F - 27.0 °F 57% 30.21 in 10.0 mi Calm Calm - N/A   Scattered Clouds